Weather History for Moffett NAS, CA

Change the Weather History Date:

Friday, September 27, 2013

  Actual Average Record
Temperature  
Mean Temperature 65 °F 67 °F  
Max Temperature 79 °F 77 °F 94 °F (2010)
Min Temperature 51 °F 57 °F 43 °F (1948)
Degree Days  
Heating Degree Days 0    
Month to date heating degree days 5  
Since 1 July heating degree days 9  
Cooling Degree Days 0    
Month to date cooling degree days 100  
Year to date cooling degree days 459  
Growing Degree Days 15 (Base 50)    
Moisture  
Dew Point 40 °F    
Average Humidity 45    
Maximum Humidity 71    
Minimum Humidity 19    
Precipitation  
Precipitation 0.00 in 0.01 in 0.39 in (1972)
Month to date precipitation 0.50 0.15  
Year to date precipitation 2.32 9.81  
Since 1 July precipitation 0.50 0.18  
Sea Level Pressure  
Sea Level Pressure 30.07 in    
Wind  
Wind Speed 3 mph (NNW)    
Max Wind Speed 18 mph    
Max Gust Speed 21 mph    
Visibility 10 miles    
Events      
T = Trace of Precipitation, MM = Missing Value Source: NWS Daily Summary

Daily Weather History Graph

Daily Weather History Graph

Search for Another Location

Airport:

Trip Planner

Search our weather history database for the weather conditions in past years. The results will help you decide how hot, cold, wet, or windy it might be!

Date:

Astronomy

Sep. 27, 2013 Rise Set
Actual Time 7:00 AM PDT 6:56 PM PDT
Civil Twilight 6:34 AM PDT 7:22 PM PDT
Nautical Twilight 6:04 AM PDT 7:53 PM PDT
Astronomical Twilight 5:33 AM PDT 8:23 PM PDT
Moon 12:07 AM PDT (9/27) 2:32 PM PDT (9/27)
Length of Visible Light 12h 48m
Length of Day
11h 56m
Last Quarter, 44% of the Moon is Illuminated
Sep 27
Last Quarter
Oct 4
New
Oct 11
First Quarter
Oct 18
Full
Oct 26
Last Quarter

Hourly Weather History & Observations

Time (PDT) Temp. Dew Point Humidity Pressure Visibility Wind Dir Wind Speed Gust Speed Precip Events Conditions
12:56 AM 57.0 °F 41.0 °F 55% 30.01 in 10.0 mi Calm Calm - N/A   Clear
1:56 AM 55.0 °F 41.0 °F 59% 30.03 in 10.0 mi Calm Calm - N/A   Clear
2:56 AM 53.1 °F 41.0 °F 64% 30.04 in 10.0 mi Calm Calm - N/A   Clear
3:56 AM 53.1 °F 42.1 °F 66% 30.04 in 10.0 mi Calm Calm - N/A   Clear
4:56 AM 53.1 °F 42.1 °F 66% 30.04 in 10.0 mi Calm Calm - N/A   Clear
5:56 AM 52.0 °F 43.0 °F 71% 30.06 in 10.0 mi Calm Calm - N/A   Clear
6:56 AM 52.0 °F 42.1 °F 69% 30.08 in 10.0 mi Calm Calm - N/A   Clear
7:56 AM 53.1 °F 43.0 °F 69% 30.10 in 10.0 mi Calm Calm - N/A   Clear
8:56 AM 60.1 °F 43.0 °F 53% 30.11 in 10.0 mi Calm Calm - N/A   Clear
9:56 AM 66.9 °F 37.0 °F 33% 30.12 in 10.0 mi WNW 4.6 mph - N/A   Clear
10:56 AM 69.1 °F 34.0 °F 27% 30.12 in 10.0 mi Calm Calm - N/A   Clear
11:56 AM 73.0 °F 36.0 °F 26% 30.11 in 10.0 mi Variable 3.5 mph - N/A   Clear
12:56 PM 75.0 °F 36.0 °F 24% 30.10 in 10.0 mi Calm Calm - N/A   Clear
1:56 PM 75.9 °F 35.1 °F 23% 30.08 in 10.0 mi North 3.5 mph - N/A   Clear
2:56 PM 78.1 °F 34.0 °F 20% 30.05 in 10.0 mi North 8.1 mph - N/A   Clear
3:56 PM 78.1 °F 35.1 °F 21% 30.04 in 10.0 mi NW 6.9 mph - N/A   Clear
4:56 PM 75.9 °F 41.0 °F 29% 30.04 in 10.0 mi NNW 12.7 mph - N/A   Clear
5:56 PM 71.1 °F 48.9 °F 45% 30.04 in 10.0 mi North 16.1 mph 20.7 mph N/A   Clear
6:56 PM 68.0 °F 45.0 °F 43% 30.05 in 10.0 mi NNW 10.4 mph - N/A   Clear
7:56 PM 66.9 °F 37.0 °F 33% 30.06 in 10.0 mi North 6.9 mph - N/A   Clear
8:56 PM 64.9 °F 37.0 °F 36% 30.08 in 10.0 mi NNW 3.5 mph - N/A   Clear
9:56 PM 64.0 °F 42.1 °F 45% 30.09 in 10.0 mi Calm Calm - N/A   Clear
10:56 PM 62.1 °F 42.1 °F 48% 30.09 in 10.0 mi South 3.5 mph - N/A   Clear
11:56 PM 60.1 °F 39.9 °F 47% 30.08 in 10.0 mi Calm Calm - N/A   Clear